Year,Month,Day,Hour,Minute,Value (Times are PST for temperature in C)
2013,10,24,00,00,4.30
2013,10,24,00,01,4.30
2013,10,24,00,02,4.30
2013,10,24,00,03,4.30
2013,10,24,00,04,4.30
2013,10,24,00,05,4.30
2013,10,24,00,06,4.30
2013,10,24,00,07,4.30
2013,10,24,00,08,4.30
2013,10,24,00,09,4.30
2013,10,24,00,10,4.40
2013,10,24,00,11,4.40
2013,10,24,00,12,4.40
2013,10,24,00,13,4.40
2013,10,24,00,14,4.40
2013,10,24,00,15,4.40
2013,10,24,00,16,4.40
2013,10,24,00,17,4.30
2013,10,24,00,18,4.30
2013,10,24,00,19,4.30
2013,10,24,00,20,4.30
2013,10,24,00,21,4.20
2013,10,24,00,22,4.20
2013,10,24,00,23,4.20
2013,10,24,00,24,4.20
2013,10,24,00,25,4.20
2013,10,24,00,26,4.20
2013,10,24,00,27,4.20
2013,10,24,00,28,4.20
2013,10,24,00,29,4.20
2013,10,24,00,30,4.20
2013,10,24,00,31,4.20
2013,10,24,00,32,4.20
2013,10,24,00,33,4.20
2013,10,24,00,34,4.20
2013,10,24,00,35,4.20
2013,10,24,00,36,4.20
2013,10,24,00,37,4.10
2013,10,24,00,38,4.10
2013,10,24,00,39,4.10
2013,10,24,00,40,4.10
2013,10,24,00,41,4.10
2013,10,24,00,42,4.10
2013,10,24,00,43,4.10
2013,10,24,00,44,4.10
2013,10,24,00,45,4.10
2013,10,24,00,46,4.10
2013,10,24,00,47,4.10
2013,10,24,00,48,4.10
2013,10,24,00,49,4.10
2013,10,24,00,50,4.00
2013,10,24,00,51,4.00
2013,10,24,00,52,4.00
2013,10,24,00,53,4.10
2013,10,24,00,54,4.10
2013,10,24,00,55,4.10
2013,10,24,00,56,4.10
2013,10,24,00,57,4.20
2013,10,24,00,58,4.20
2013,10,24,00,59,4.20
2013,10,24,01,00,4.20
2013,10,24,01,01,4.20
2013,10,24,01,02,4.20
2013,10,24,01,03,4.20
2013,10,24,01,04,4.20
2013,10,24,01,05,4.10
2013,10,24,01,06,4.10
2013,10,24,01,07,4.10
2013,10,24,01,08,4.10
2013,10,24,01,09,4.10
2013,10,24,01,10,4.10
2013,10,24,01,11,4.10
2013,10,24,01,12,4.10
2013,10,24,01,13,4.20
2013,10,24,01,14,4.30
2013,10,24,01,15,4.30
2013,10,24,01,16,4.40
2013,10,24,01,17,4.40
2013,10,24,01,18,4.40
2013,10,24,01,19,4.30
2013,10,24,01,20,4.30
2013,10,24,01,21,4.30
2013,10,24,01,22,4.30
2013,10,24,01,23,4.20
2013,10,24,01,24,4.20
2013,10,24,01,25,4.20
2013,10,24,01,26,4.20
2013,10,24,01,27,4.20
2013,10,24,01,28,4.10
2013,10,24,01,29,4.10
2013,10,24,01,30,4.00
2013,10,24,01,31,4.00
2013,10,24,01,32,3.90
2013,10,24,01,33,3.90
2013,10,24,01,34,3.90
2013,10,24,01,35,3.80
2013,10,24,01,36,3.80
2013,10,24,01,37,3.70
2013,10,24,01,38,3.70
2013,10,24,01,39,3.70
2013,10,24,01,40,3.70
2013,10,24,01,41,3.70
2013,10,24,01,42,3.70
2013,10,24,01,43,3.70
2013,10,24,01,44,3.70
2013,10,24,01,45,3.70
2013,10,24,01,46,3.80
2013,10,24,01,47,3.80
2013,10,24,01,48,3.80
2013,10,24,01,49,3.80
2013,10,24,01,50,3.80
2013,10,24,01,51,3.80
2013,10,24,01,52,3.90
2013,10,24,01,53,3.90
2013,10,24,01,54,3.90
2013,10,24,01,55,3.90
2013,10,24,01,56,3.80
2013,10,24,01,57,3.80
2013,10,24,01,58,3.80
2013,10,24,01,59,3.80
2013,10,24,02,00,3.70
2013,10,24,02,01,3.70
2013,10,24,02,02,3.70
2013,10,24,02,03,3.70
2013,10,24,02,04,3.60
2013,10,24,02,05,3.60
2013,10,24,02,06,3.60
2013,10,24,02,07,3.60
2013,10,24,02,08,3.50
2013,10,24,02,09,3.60
2013,10,24,02,10,3.60
2013,10,24,02,11,3.60
2013,10,24,02,12,3.60
2013,10,24,02,13,3.60
2013,10,24,02,14,3.60
2013,10,24,02,15,3.60
2013,10,24,02,16,3.60
2013,10,24,02,17,3.60
2013,10,24,02,18,3.60
2013,10,24,02,19,3.60
2013,10,24,02,20,3.60
2013,10,24,02,21,3.60
2013,10,24,02,22,3.60
2013,10,24,02,23,3.60
2013,10,24,02,24,3.60
2013,10,24,02,25,3.60
2013,10,24,02,26,3.60
2013,10,24,02,27,3.60
2013,10,24,02,28,3.60
2013,10,24,02,29,3.60
2013,10,24,02,30,3.50
2013,10,24,02,31,3.50
2013,10,24,02,32,3.50
2013,10,24,02,33,3.50
2013,10,24,02,34,3.60
2013,10,24,02,35,3.60
2013,10,24,02,36,3.60
2013,10,24,02,37,3.60
2013,10,24,02,38,3.60
2013,10,24,02,39,3.50
2013,10,24,02,40,3.50
2013,10,24,02,41,3.50
2013,10,24,02,42,3.50
2013,10,24,02,43,3.50
2013,10,24,02,44,3.60
2013,10,24,02,45,3.60
2013,10,24,02,46,3.60
2013,10,24,02,47,3.60
2013,10,24,02,48,3.60
2013,10,24,02,49,3.60
2013,10,24,02,50,3.60
2013,10,24,02,51,3.60
2013,10,24,02,52,3.50
2013,10,24,02,53,3.50
2013,10,24,02,54,3.50
2013,10,24,02,55,3.40
2013,10,24,02,56,3.40
2013,10,24,02,57,3.40
2013,10,24,02,58,3.30
2013,10,24,02,59,3.30
2013,10,24,03,00,3.30
2013,10,24,03,01,3.30
2013,10,24,03,02,3.30
2013,10,24,03,03,3.30
2013,10,24,03,04,3.30
2013,10,24,03,05,3.30
2013,10,24,03,06,3.30
2013,10,24,03,07,3.30
2013,10,24,03,08,3.30
2013,10,24,03,09,3.30
2013,10,24,03,10,3.30
2013,10,24,03,11,3.40
2013,10,24,03,12,3.40
2013,10,24,03,13,3.40
2013,10,24,03,14,3.40
2013,10,24,03,15,3.40
2013,10,24,03,16,3.40
2013,10,24,03,17,3.40
2013,10,24,03,18,3.40
2013,10,24,03,19,3.40
2013,10,24,03,20,3.40
2013,10,24,03,21,3.40
2013,10,24,03,22,3.40
2013,10,24,03,23,3.40
2013,10,24,03,24,3.50
2013,10,24,03,25,3.50
2013,10,24,03,26,3.50
2013,10,24,03,27,3.50
2013,10,24,03,28,3.60
2013,10,24,03,29,3.60
2013,10,24,03,30,3.60
2013,10,24,03,31,3.50
2013,10,24,03,32,3.50
2013,10,24,03,33,3.40
2013,10,24,03,34,3.40
2013,10,24,03,35,3.40
2013,10,24,03,36,3.40
2013,10,24,03,37,3.30
2013,10,24,03,38,3.30
2013,10,24,03,39,3.20
2013,10,24,03,40,3.20
2013,10,24,03,41,3.20
2013,10,24,03,42,3.20
2013,10,24,03,43,3.20
2013,10,24,03,44,3.20
2013,10,24,03,45,3.20
2013,10,24,03,46,3.20
2013,10,24,03,47,3.10
2013,10,24,03,48,3.10
2013,10,24,03,49,3.10
2013,10,24,03,50,3.10
2013,10,24,03,51,3.10
2013,10,24,03,52,3.10
2013,10,24,03,53,3.20
2013,10,24,03,54,3.20
2013,10,24,03,55,3.30
2013,10,24,03,56,3.40
2013,10,24,03,57,3.40
2013,10,24,03,58,3.50
2013,10,24,03,59,3.50
2013,10,24,04,00,3.40
2013,10,24,04,01,3.40
2013,10,24,04,02,3.40
2013,10,24,04,03,3.30
2013,10,24,04,04,3.30
2013,10,24,04,05,3.30
2013,10,24,04,06,3.20
2013,10,24,04,07,3.20
2013,10,24,04,08,3.20
2013,10,24,04,09,3.10
2013,10,24,04,10,3.10
2013,10,24,04,11,3.10
2013,10,24,04,12,3.00
2013,10,24,04,13,3.00
2013,10,24,04,14,3.00
2013,10,24,04,15,2.90
2013,10,24,04,16,2.90
2013,10,24,04,17,2.90
2013,10,24,04,18,2.90
2013,10,24,04,19,2.90
2013,10,24,04,20,2.90
2013,10,24,04,21,2.90
2013,10,24,04,22,2.90
2013,10,24,04,23,3.00
2013,10,24,04,24,3.10
2013,10,24,04,25,3.30
2013,10,24,04,26,3.40
2013,10,24,04,27,3.50
2013,10,24,04,28,3.50
2013,10,24,04,29,3.50
2013,10,24,04,30,3.60
2013,10,24,04,31,3.60
2013,10,24,04,32,3.60
2013,10,24,04,33,3.60
2013,10,24,04,34,3.60
2013,10,24,04,35,3.60
2013,10,24,04,36,3.50
2013,10,24,04,37,3.50
2013,10,24,04,38,3.40
2013,10,24,04,39,3.40
2013,10,24,04,40,3.30
2013,10,24,04,41,3.30
2013,10,24,04,42,3.30
2013,10,24,04,43,3.30
2013,10,24,04,44,3.30
2013,10,24,04,45,3.30
2013,10,24,04,46,3.30
2013,10,24,04,47,3.30
2013,10,24,04,48,3.40
2013,10,24,04,49,3.40
2013,10,24,04,50,3.40
2013,10,24,04,51,3.40
2013,10,24,04,52,3.40
2013,10,24,04,53,3.30
2013,10,24,04,54,3.30
2013,10,24,04,55,3.30
2013,10,24,04,56,3.30
2013,10,24,04,57,3.20
2013,10,24,04,58,3.20
2013,10,24,04,59,3.20
2013,10,24,05,00,3.20
2013,10,24,05,01,3.20
2013,10,24,05,02,3.30
2013,10,24,05,03,3.30
2013,10,24,05,04,3.40
2013,10,24,05,05,3.40
2013,10,24,05,06,3.40
2013,10,24,05,07,3.40
2013,10,24,05,08,3.40
2013,10,24,05,09,3.30
2013,10,24,05,10,3.30
2013,10,24,05,11,3.30
2013,10,24,05,12,3.30
2013,10,24,05,13,3.30
2013,10,24,05,14,3.30
2013,10,24,05,15,3.20
2013,10,24,05,16,3.20
2013,10,24,05,17,3.20
2013,10,24,05,18,3.20
2013,10,24,05,19,3.10
2013,10,24,05,20,3.10
2013,10,24,05,21,3.10
2013,10,24,05,22,3.10
2013,10,24,05,23,3.10
2013,10,24,05,24,3.00
2013,10,24,05,25,3.00
2013,10,24,05,26,3.00
2013,10,24,05,27,3.00
2013,10,24,05,28,3.00
2013,10,24,05,29,3.00
2013,10,24,05,30,3.00
2013,10,24,05,31,3.00
2013,10,24,05,32,3.00
2013,10,24,05,33,3.00
2013,10,24,05,34,3.00
2013,10,24,05,35,3.00
2013,10,24,05,36,3.00
2013,10,24,05,37,3.00
2013,10,24,05,38,3.10
2013,10,24,05,39,3.10
2013,10,24,05,40,3.20
2013,10,24,05,41,3.20
2013,10,24,05,42,3.20
2013,10,24,05,43,3.20
2013,10,24,05,44,3.20
2013,10,24,05,45,3.20
2013,10,24,05,46,3.20
2013,10,24,05,47,3.10
2013,10,24,05,48,3.10
2013,10,24,05,49,3.10
2013,10,24,05,50,3.10
2013,10,24,05,51,3.00
2013,10,24,05,52,3.00
2013,10,24,05,53,3.00
2013,10,24,05,54,2.90
2013,10,24,05,55,2.90
2013,10,24,05,56,2.90
2013,10,24,05,57,2.90
2013,10,24,05,58,2.80
2013,10,24,05,59,2.80
2013,10,24,06,00,2.80
2013,10,24,06,01,2.80
2013,10,24,06,02,2.80
2013,10,24,06,03,2.80
2013,10,24,06,04,2.80
2013,10,24,06,05,2.80
2013,10,24,06,06,2.80
2013,10,24,06,07,2.80
2013,10,24,06,08,2.80
2013,10,24,06,09,2.80
2013,10,24,06,10,2.70
2013,10,24,06,11,2.70
2013,10,24,06,12,2.70
2013,10,24,06,13,2.70
2013,10,24,06,14,2.70
2013,10,24,06,15,2.70
2013,10,24,06,16,2.70
2013,10,24,06,17,2.70
2013,10,24,06,18,2.70
2013,10,24,06,19,2.70
2013,10,24,06,20,2.70
2013,10,24,06,21,2.80
2013,10,24,06,22,2.80
2013,10,24,06,23,2.90
2013,10,24,06,24,3.00
2013,10,24,06,25,3.10
2013,10,24,06,26,3.20
2013,10,24,06,27,3.20
2013,10,24,06,28,3.20
2013,10,24,06,29,3.20
2013,10,24,06,30,3.20
2013,10,24,06,31,3.10
2013,10,24,06,32,3.10
2013,10,24,06,33,3.10
2013,10,24,06,34,3.00
2013,10,24,06,35,3.00
2013,10,24,06,36,2.90
2013,10,24,06,37,2.90
2013,10,24,06,38,2.90
2013,10,24,06,39,2.80
2013,10,24,06,40,2.80
2013,10,24,06,41,2.70
2013,10,24,06,42,2.70
2013,10,24,06,43,2.60
2013,10,24,06,44,2.60
2013,10,24,06,45,2.60
2013,10,24,06,46,2.50
2013,10,24,06,47,2.50
2013,10,24,06,48,2.40
2013,10,24,06,49,2.40
2013,10,24,06,50,2.40
2013,10,24,06,51,2.40
2013,10,24,06,52,2.30
2013,10,24,06,53,2.30
2013,10,24,06,54,2.30
2013,10,24,06,55,2.30
2013,10,24,06,56,2.40
2013,10,24,06,57,2.50
2013,10,24,06,58,2.60
2013,10,24,06,59,2.60
2013,10,24,07,00,2.70
2013,10,24,07,01,2.70
2013,10,24,07,02,2.70
2013,10,24,07,03,2.70
2013,10,24,07,04,2.70
2013,10,24,07,05,2.60
2013,10,24,07,06,2.60
2013,10,24,07,07,2.60
2013,10,24,07,08,2.60
2013,10,24,07,09,2.50
2013,10,24,07,10,2.50
2013,10,24,07,11,2.40
2013,10,24,07,12,2.40
2013,10,24,07,13,2.40
2013,10,24,07,14,2.40
2013,10,24,07,15,2.40
2013,10,24,07,16,2.40
2013,10,24,07,17,2.40
2013,10,24,07,18,2.50
2013,10,24,07,19,2.50
2013,10,24,07,20,2.50
2013,10,24,07,21,2.50
2013,10,24,07,22,2.50
2013,10,24,07,23,2.50
2013,10,24,07,24,2.40
2013,10,24,07,25,2.40
2013,10,24,07,26,2.40
2013,10,24,07,27,2.40
2013,10,24,07,28,2.40
2013,10,24,07,29,2.40
2013,10,24,07,30,2.40
2013,10,24,07,31,2.40
2013,10,24,07,32,2.40
2013,10,24,07,33,2.40
2013,10,24,07,34,2.40
2013,10,24,07,35,2.30
2013,10,24,07,36,2.30
2013,10,24,07,37,2.30
2013,10,24,07,38,2.30
2013,10,24,07,39,2.30
2013,10,24,07,40,2.30
2013,10,24,07,41,2.30
2013,10,24,07,42,2.30
2013,10,24,07,43,2.30
2013,10,24,07,44,2.30
2013,10,24,07,45,2.30
2013,10,24,07,46,2.30
2013,10,24,07,47,2.30
2013,10,24,07,48,2.30
2013,10,24,07,49,2.30
2013,10,24,07,50,2.20
2013,10,24,07,51,2.20
2013,10,24,07,52,2.20
2013,10,24,07,53,2.20
2013,10,24,07,54,2.20
2013,10,24,07,55,2.20
2013,10,24,07,56,2.20
2013,10,24,07,57,2.20
2013,10,24,07,58,2.20
2013,10,24,07,59,2.10
2013,10,24,08,00,2.10
2013,10,24,08,01,2.10
2013,10,24,08,02,2.10
2013,10,24,08,03,2.10
2013,10,24,08,04,2.10
2013,10,24,08,05,2.10
2013,10,24,08,06,2.10
2013,10,24,08,07,2.10
2013,10,24,08,08,2.10
2013,10,24,08,09,2.10
2013,10,24,08,10,2.10
2013,10,24,08,11,2.10
2013,10,24,08,12,2.10
2013,10,24,08,13,2.10
2013,10,24,08,14,2.10
2013,10,24,08,15,2.20
2013,10,24,08,16,2.20
2013,10,24,08,17,2.20
2013,10,24,08,18,2.30
2013,10,24,08,19,2.30
2013,10,24,08,20,2.40
2013,10,24,08,21,2.50
2013,10,24,08,22,2.60
2013,10,24,08,23,2.60
2013,10,24,08,24,2.70
2013,10,24,08,25,2.70
2013,10,24,08,26,2.80
2013,10,24,08,27,2.80
2013,10,24,08,28,2.80
2013,10,24,08,29,2.90
2013,10,24,08,30,2.90
2013,10,24,08,31,2.90
2013,10,24,08,32,2.90
2013,10,24,08,33,2.90
2013,10,24,08,34,2.90
2013,10,24,08,35,2.90
2013,10,24,08,36,2.90
2013,10,24,08,37,3.00
2013,10,24,08,38,3.00
2013,10,24,08,39,3.00
2013,10,24,08,40,3.00
2013,10,24,08,41,3.00
2013,10,24,08,42,3.10
2013,10,24,08,43,3.10
2013,10,24,08,44,3.20
2013,10,24,08,45,3.20
2013,10,24,08,46,3.30
2013,10,24,08,47,3.30
2013,10,24,08,48,3.40
2013,10,24,08,49,3.40
2013,10,24,08,50,3.50
2013,10,24,08,51,3.50
2013,10,24,08,52,3.60
2013,10,24,08,53,3.70
2013,10,24,08,54,3.70
2013,10,24,08,55,3.80
2013,10,24,08,56,3.80
2013,10,24,08,57,3.90
2013,10,24,08,58,3.90
2013,10,24,08,59,4.00
2013,10,24,09,00,4.00
2013,10,24,09,01,4.10
2013,10,24,09,02,4.20
2013,10,24,09,03,4.30
2013,10,24,09,04,4.40
2013,10,24,09,05,4.50
2013,10,24,09,06,4.60
2013,10,24,09,07,4.70
2013,10,24,09,08,4.80
2013,10,24,09,09,4.80
2013,10,24,09,10,4.90
2013,10,24,09,11,5.00
2013,10,24,09,12,5.10
2013,10,24,09,13,5.30
2013,10,24,09,14,5.50
2013,10,24,09,15,5.70
2013,10,24,09,16,5.80
2013,10,24,09,17,5.90
2013,10,24,09,18,5.90
2013,10,24,09,19,5.90
2013,10,24,09,20,5.90
2013,10,24,09,21,5.90
2013,10,24,09,22,5.90
2013,10,24,09,23,5.90
2013,10,24,09,24,5.90
2013,10,24,09,25,5.90
2013,10,24,09,26,5.90
2013,10,24,09,27,5.90
2013,10,24,09,28,5.90
2013,10,24,09,29,5.80
2013,10,24,09,30,5.80
2013,10,24,09,31,5.80
2013,10,24,09,32,5.90
2013,10,24,09,33,6.10
2013,10,24,09,34,6.20
2013,10,24,09,35,6.30
2013,10,24,09,36,6.50
2013,10,24,09,37,6.60
2013,10,24,09,38,6.70
2013,10,24,09,39,6.80
2013,10,24,09,40,6.80
2013,10,24,09,41,6.80
2013,10,24,09,42,6.80
2013,10,24,09,43,6.80
2013,10,24,09,44,6.90
2013,10,24,09,45,7.00
2013,10,24,09,46,7.10
2013,10,24,09,47,7.20
2013,10,24,09,48,7.30
2013,10,24,09,49,7.40
2013,10,24,09,50,7.50
2013,10,24,09,51,7.60
2013,10,24,09,52,7.70
2013,10,24,09,53,7.70
2013,10,24,09,54,7.80
2013,10,24,09,55,7.80
2013,10,24,09,56,7.80
2013,10,24,09,57,7.90
2013,10,24,09,58,8.00
2013,10,24,09,59,8.00
2013,10,24,10,00,8.10
2013,10,24,10,01,8.10
2013,10,24,10,02,8.10
2013,10,24,10,03,8.10
2013,10,24,10,04,8.10
2013,10,24,10,05,8.10
2013,10,24,10,06,8.10
2013,10,24,10,07,8.20
2013,10,24,10,08,8.20
2013,10,24,10,09,8.20
2013,10,24,10,10,8.30
2013,10,24,10,11,8.40
2013,10,24,10,12,8.40
2013,10,24,10,13,8.50
2013,10,24,10,14,8.50
2013,10,24,10,15,8.50
2013,10,24,10,16,8.40
2013,10,24,10,17,8.40
2013,10,24,10,18,8.40
2013,10,24,10,19,8.40
2013,10,24,10,20,8.40
2013,10,24,10,21,8.50
2013,10,24,10,22,8.60
2013,10,24,10,23,8.60
2013,10,24,10,24,8.60
2013,10,24,10,25,8.60
2013,10,24,10,26,8.60
2013,10,24,10,27,8.60
2013,10,24,10,28,8.60
2013,10,24,10,29,8.60
2013,10,24,10,30,8.60
2013,10,24,10,31,8.60
2013,10,24,10,32,8.60
2013,10,24,10,33,8.60
2013,10,24,10,34,8.70
2013,10,24,10,35,8.70
2013,10,24,10,36,8.80
2013,10,24,10,37,8.90
2013,10,24,10,38,8.90
2013,10,24,10,39,8.90
2013,10,24,10,40,9.00
2013,10,24,10,41,9.00
2013,10,24,10,42,9.00
2013,10,24,10,43,9.10
2013,10,24,10,44,9.10
2013,10,24,10,45,9.10
2013,10,24,10,46,9.10
2013,10,24,10,47,9.20
2013,10,24,10,48,9.20
2013,10,24,10,49,9.30
2013,10,24,10,50,9.30
2013,10,24,10,51,9.40
2013,10,24,10,52,9.40
2013,10,24,10,53,9.40
2013,10,24,10,54,9.50
2013,10,24,10,55,9.50
2013,10,24,10,56,9.60
2013,10,24,10,57,9.60
2013,10,24,10,58,9.60
2013,10,24,10,59,9.70
2013,10,24,11,00,9.70
2013,10,24,11,01,9.80
2013,10,24,11,02,9.80
2013,10,24,11,03,9.90
2013,10,24,11,04,9.90
2013,10,24,11,05,9.90
2013,10,24,11,06,9.90
2013,10,24,11,07,9.90
2013,10,24,11,08,9.90
2013,10,24,11,09,9.90
2013,10,24,11,10,9.80
2013,10,24,11,11,9.80
2013,10,24,11,12,9.80
2013,10,24,11,13,9.90
2013,10,24,11,14,9.90
2013,10,24,11,15,9.90
2013,10,24,11,16,9.90
2013,10,24,11,17,9.90
2013,10,24,11,18,9.90
2013,10,24,11,19,9.90
2013,10,24,11,20,9.80
2013,10,24,11,21,9.70
2013,10,24,11,22,9.70
2013,10,24,11,23,9.70
2013,10,24,11,24,9.60
2013,10,24,11,25,9.60
2013,10,24,11,26,9.60
2013,10,24,11,27,9.60
2013,10,24,11,28,9.60
2013,10,24,11,29,9.60
2013,10,24,11,30,9.60
2013,10,24,11,31,9.60
2013,10,24,11,32,9.60
2013,10,24,11,33,9.60
2013,10,24,11,34,9.60
2013,10,24,11,35,9.60
2013,10,24,11,36,9.70
2013,10,24,11,37,9.70
2013,10,24,11,38,9.80
2013,10,24,11,39,9.80
2013,10,24,11,40,9.80
2013,10,24,11,41,9.90
2013,10,24,11,42,9.90
2013,10,24,11,43,9.90
2013,10,24,11,44,9.90
2013,10,24,11,45,9.90
2013,10,24,11,46,10.00
2013,10,24,11,47,10.00
2013,10,24,11,48,10.10
2013,10,24,11,49,10.10
2013,10,24,11,50,10.20
2013,10,24,11,51,10.20
2013,10,24,11,52,10.20
2013,10,24,11,53,10.30
2013,10,24,11,54,10.30
2013,10,24,11,55,10.40
2013,10,24,11,56,10.50
2013,10,24,11,57,10.50
2013,10,24,11,58,10.60
2013,10,24,11,59,10.70
2013,10,24,12,00,10.70
2013,10,24,12,01,10.70
2013,10,24,12,02,10.80
2013,10,24,12,03,10.80
2013,10,24,12,04,10.80
2013,10,24,12,05,10.90
2013,10,24,12,06,10.90
2013,10,24,12,07,11.00
2013,10,24,12,08,11.00
2013,10,24,12,09,11.00
2013,10,24,12,10,11.10
2013,10,24,12,11,11.10
2013,10,24,12,12,11.10
2013,10,24,12,13,11.10
2013,10,24,12,14,11.10
2013,10,24,12,15,11.10
2013,10,24,12,16,11.20
2013,10,24,12,17,11.20
2013,10,24,12,18,11.30
2013,10,24,12,19,11.30
2013,10,24,12,20,11.40
2013,10,24,12,21,11.50
2013,10,24,12,22,11.50
2013,10,24,12,23,11.60
2013,10,24,12,24,11.60
2013,10,24,12,25,11.70
2013,10,24,12,26,11.70
2013,10,24,12,27,11.80
2013,10,24,12,28,11.80
2013,10,24,12,29,11.90
2013,10,24,12,30,12.00
2013,10,24,12,31,12.00
2013,10,24,12,32,12.10
2013,10,24,12,33,12.10
2013,10,24,12,34,12.10
2013,10,24,12,35,12.10
2013,10,24,12,36,12.20
2013,10,24,12,37,12.20
2013,10,24,12,38,12.20
2013,10,24,12,39,12.20
2013,10,24,12,40,12.30
2013,10,24,12,41,12.30
2013,10,24,12,42,12.40
2013,10,24,12,43,12.50
2013,10,24,12,44,12.60
2013,10,24,12,45,12.60
2013,10,24,12,46,12.70
2013,10,24,12,47,12.80
2013,10,24,12,48,12.80
2013,10,24,12,49,12.90
2013,10,24,12,50,13.00
2013,10,24,12,51,13.00
2013,10,24,12,52,13.10
2013,10,24,12,53,13.20
2013,10,24,12,54,13.30
2013,10,24,12,55,13.40
2013,10,24,12,56,13.40
2013,10,24,12,57,13.40
2013,10,24,12,58,13.40
2013,10,24,12,59,13.40
2013,10,24,13,00,13.40
2013,10,24,13,01,13.30
2013,10,24,13,02,13.30
2013,10,24,13,03,13.30
2013,10,24,13,04,13.30
2013,10,24,13,05,13.20
2013,10,24,13,06,13.20
2013,10,24,13,07,13.20
2013,10,24,13,08,13.10
2013,10,24,13,09,13.00
2013,10,24,13,10,12.90
2013,10,24,13,11,12.80
2013,10,24,13,12,12.70
2013,10,24,13,13,12.50
2013,10,24,13,14,12.40
2013,10,24,13,15,12.40
2013,10,24,13,16,12.30
2013,10,24,13,17,12.20
2013,10,24,13,18,12.10
2013,10,24,13,19,12.00
2013,10,24,13,20,11.90
2013,10,24,13,21,11.80
2013,10,24,13,22,11.60
2013,10,24,13,23,11.40
2013,10,24,13,24,11.30
2013,10,24,13,25,11.10
2013,10,24,13,26,11.00
2013,10,24,13,27,10.90
2013,10,24,13,28,10.90
2013,10,24,13,29,10.90
2013,10,24,13,30,10.90
2013,10,24,13,31,10.90
2013,10,24,13,32,10.90
2013,10,24,13,33,11.00
2013,10,24,13,34,11.00
2013,10,24,13,35,11.00
2013,10,24,13,36,11.10
2013,10,24,13,37,11.10
2013,10,24,13,38,11.10
2013,10,24,13,39,11.20
2013,10,24,13,40,11.20
2013,10,24,13,41,11.30
2013,10,24,13,42,11.40
2013,10,24,13,43,11.50
2013,10,24,13,44,11.60
2013,10,24,13,45,11.60
2013,10,24,13,46,11.60
2013,10,24,13,47,11.50
2013,10,24,13,48,11.50
2013,10,24,13,49,11.40
2013,10,24,13,50,11.40
2013,10,24,13,51,11.40
2013,10,24,13,52,11.40
2013,10,24,13,53,11.40
2013,10,24,13,54,11.40
2013,10,24,13,55,11.40
2013,10,24,13,56,11.40
2013,10,24,13,57,11.40
2013,10,24,13,58,11.30
2013,10,24,13,59,11.30
2013,10,24,14,00,11.30
2013,10,24,14,01,11.30
2013,10,24,14,02,11.30
2013,10,24,14,03,11.30
2013,10,24,14,04,11.30
2013,10,24,14,05,11.30
2013,10,24,14,06,11.40
2013,10,24,14,07,11.40
2013,10,24,14,08,11.30
2013,10,24,14,09,11.30
2013,10,24,14,10,11.30
2013,10,24,14,11,11.30
2013,10,24,14,12,11.30
2013,10,24,14,13,11.30
2013,10,24,14,14,11.20
2013,10,24,14,15,11.10
2013,10,24,14,16,11.00
2013,10,24,14,17,11.00
2013,10,24,14,18,10.90
2013,10,24,14,19,10.90
2013,10,24,14,20,10.90
2013,10,24,14,21,11.00
2013,10,24,14,22,11.00
2013,10,24,14,23,11.10
2013,10,24,14,24,11.10
2013,10,24,14,25,11.20
2013,10,24,14,26,11.20
2013,10,24,14,27,11.30
2013,10,24,14,28,11.40
2013,10,24,14,29,11.50
2013,10,24,14,30,11.60
2013,10,24,14,31,11.70
2013,10,24,14,32,11.80
2013,10,24,14,33,11.80
2013,10,24,14,34,11.90
2013,10,24,14,35,12.00
2013,10,24,14,36,12.10
2013,10,24,14,37,12.10
2013,10,24,14,38,12.20
2013,10,24,14,39,12.30
2013,10,24,14,40,12.30
2013,10,24,14,41,12.30
2013,10,24,14,42,12.40
2013,10,24,14,43,12.40
2013,10,24,14,44,12.40
2013,10,24,14,45,12.50
2013,10,24,14,46,12.50
2013,10,24,14,47,12.60
2013,10,24,14,48,12.70
2013,10,24,14,49,12.70
2013,10,24,14,50,12.70
2013,10,24,14,51,12.80
2013,10,24,14,52,12.80
2013,10,24,14,53,12.80
2013,10,24,14,54,12.80
2013,10,24,14,55,12.80
2013,10,24,14,56,12.80
2013,10,24,14,57,12.80
2013,10,24,14,58,12.80
2013,10,24,14,59,12.80
2013,10,24,15,00,12.80
2013,10,24,15,01,12.80
2013,10,24,15,02,12.80
2013,10,24,15,03,12.80
2013,10,24,15,04,12.80
2013,10,24,15,05,12.90
2013,10,24,15,06,12.90
2013,10,24,15,07,12.90
2013,10,24,15,08,12.90
2013,10,24,15,09,13.00
2013,10,24,15,10,13.00
2013,10,24,15,11,13.00
2013,10,24,15,12,13.10
2013,10,24,15,13,13.10
2013,10,24,15,14,13.10
2013,10,24,15,15,13.00
2013,10,24,15,16,13.00
2013,10,24,15,17,12.90
2013,10,24,15,18,12.90
2013,10,24,15,19,12.90
2013,10,24,15,20,12.90
2013,10,24,15,21,12.90
2013,10,24,15,22,12.90
2013,10,24,15,23,13.00
2013,10,24,15,24,13.00
2013,10,24,15,25,13.00
2013,10,24,15,26,13.10
2013,10,24,15,27,13.10
2013,10,24,15,28,13.10
2013,10,24,15,29,13.00
2013,10,24,15,30,13.00
2013,10,24,15,31,12.90
2013,10,24,15,32,12.90
2013,10,24,15,33,12.80
2013,10,24,15,34,12.80
2013,10,24,15,35,12.80
2013,10,24,15,36,12.80
2013,10,24,15,37,12.80
2013,10,24,15,38,12.80
2013,10,24,15,39,12.80
2013,10,24,15,40,12.90
2013,10,24,15,41,12.90
2013,10,24,15,42,12.90
2013,10,24,15,43,12.90
2013,10,24,15,44,13.00
2013,10,24,15,45,13.00
2013,10,24,15,46,13.10
2013,10,24,15,47,13.10
2013,10,24,15,48,13.20
2013,10,24,15,49,13.20
2013,10,24,15,50,13.20
2013,10,24,15,51,13.20
2013,10,24,15,52,13.20
2013,10,24,15,53,13.20
2013,10,24,15,54,13.20
2013,10,24,15,55,13.20
2013,10,24,15,56,13.20
2013,10,24,15,57,13.20
2013,10,24,15,58,13.20
2013,10,24,15,59,13.20
2013,10,24,16,00,13.20
2013,10,24,16,01,13.20
2013,10,24,16,02,13.20
2013,10,24,16,03,13.10
2013,10,24,16,04,13.10
2013,10,24,16,05,13.10
2013,10,24,16,06,13.10
2013,10,24,16,07,13.10
2013,10,24,16,08,13.10
2013,10,24,16,09,13.10
2013,10,24,16,10,13.10
2013,10,24,16,11,13.10
2013,10,24,16,12,13.10
2013,10,24,16,13,13.10
2013,10,24,16,14,13.10
2013,10,24,16,15,13.10
2013,10,24,16,16,13.00
2013,10,24,16,17,13.10
2013,10,24,16,18,13.10
2013,10,24,16,19,13.10
2013,10,24,16,20,13.10
2013,10,24,16,21,13.10
2013,10,24,16,22,13.20
2013,10,24,16,23,13.20
2013,10,24,16,24,13.20
2013,10,24,16,25,13.20
2013,10,24,16,26,13.30
2013,10,24,16,27,13.30
2013,10,24,16,28,13.40
2013,10,24,16,29,13.40
2013,10,24,16,30,13.50
2013,10,24,16,31,13.50
2013,10,24,16,32,13.50
2013,10,24,16,33,13.50
2013,10,24,16,34,13.60
2013,10,24,16,35,13.50
2013,10,24,16,36,13.60
2013,10,24,16,37,13.60
2013,10,24,16,38,13.60
2013,10,24,16,39,13.60
2013,10,24,16,40,13.60
2013,10,24,16,41,13.60
2013,10,24,16,42,13.60
2013,10,24,16,43,13.60
2013,10,24,16,44,13.60
2013,10,24,16,45,13.60
2013,10,24,16,46,13.60
2013,10,24,16,47,13.60
2013,10,24,16,48,13.60
2013,10,24,16,49,13.70
2013,10,24,16,50,13.70
2013,10,24,16,51,13.70
2013,10,24,16,52,13.80
2013,10,24,16,53,13.80
2013,10,24,16,54,13.80
2013,10,24,16,55,13.80
2013,10,24,16,56,13.90
2013,10,24,16,57,13.90
2013,10,24,16,58,13.90
2013,10,24,16,59,13.90
2013,10,24,17,00,13.90
2013,10,24,17,01,14.00
2013,10,24,17,02,14.00
2013,10,24,17,03,14.10
2013,10,24,17,04,14.10
2013,10,24,17,05,14.10
2013,10,24,17,06,14.10
2013,10,24,17,07,14.10
2013,10,24,17,08,14.10
2013,10,24,17,09,14.10
2013,10,24,17,10,14.10
2013,10,24,17,11,14.10
2013,10,24,17,12,14.00
2013,10,24,17,13,14.00
2013,10,24,17,14,14.00
2013,10,24,17,15,13.90
2013,10,24,17,16,13.80
2013,10,24,17,17,13.70
2013,10,24,17,18,13.70
2013,10,24,17,19,13.60
2013,10,24,17,20,13.50
2013,10,24,17,21,13.40
2013,10,24,17,22,13.40
2013,10,24,17,23,13.30
2013,10,24,17,24,13.30
2013,10,24,17,25,13.30
2013,10,24,17,26,13.20
2013,10,24,17,27,13.20
2013,10,24,17,28,13.20
2013,10,24,17,29,13.10
2013,10,24,17,30,13.10
2013,10,24,17,31,13.10
2013,10,24,17,32,13.10
2013,10,24,17,33,13.10
2013,10,24,17,34,13.00
2013,10,24,17,35,13.00
2013,10,24,17,36,13.00
2013,10,24,17,37,12.90
2013,10,24,17,38,12.90
2013,10,24,17,39,12.90
2013,10,24,17,40,12.90
2013,10,24,17,41,12.80
2013,10,24,17,42,12.80
2013,10,24,17,43,12.80
2013,10,24,17,44,12.70
2013,10,24,17,45,12.70
2013,10,24,17,46,12.60
2013,10,24,17,47,12.60
2013,10,24,17,48,12.50
2013,10,24,17,49,12.50
2013,10,24,17,50,12.40